Temp
-10 -10 -10 -10 -10 -10 -10 -10 -11 -11 -11 -11 -11 -11 -11 -11 -11 -11 -11 -11 -11 -11 -11 -11 -11 -11 -12 -11 -11 -10 -10 -10 -10 -11 -11 -11 -11 -11 -11 -11 -11 -11 -10 -10 -10
-10 -10 -10 -10 -10 -10 -10 -11 -11 -11 -11 -11 -11 -11 -12 -12 -11 -11 -11 -12 -11 -12 -11 -11 -12 -12 -11 -11 -11 -11 -11 -9 -11 -11 -11 -11 -11 -11 -11 -11 -12 -12 -11 -11 -10
-10 -10 -10 -10 -10 -11 -11 -11 -11 -11 -11 -11 -10 -11 -11 -11 -11 -11 -12 -12 -12 -12 -11 -11 -12 -12 -11 -12 -11 -11 -10 -10 -10 -11 -11 -11 -11 -11 -11 -11 -11 -10 -10 -11 -11
-10 -10 -10 -10 -10 -10 -10 -10 -10 -10 -11 -11 -11 -11 -11 -10 -10 -11 -12 -12 -12 -13 -12 -11 -11 -12 -11 -11 -11 -11 -11 -10 -10 -11 -11 -11 -11 -11 -11 -10 -10 -11 -11 -11 -11
-9 -9 -10 -10 -11 -10 -11 -10 -11 -11 -11 -10 -10 -11 -11 -9 -8 -11 -12 -12 -12 -13 -12 -12 -12 -12 -12 -12 -12 -11 -11 -11 -10 -11 -11 -11 -10 -10 -10 -11 -11 -11 -11 -12 -12
-9 -9 -9 -10 -10 -11 -10 -10 -11 -11 -11 -10 -10 -10 -9 -8 -10 -12 -12 -12 -12 -12 -13 -12 -12 -12 -12 -12 -12 -11 -11 -10 -10 -11 -10 -11 -10 -10 -10 -12 -12 -11 -12 -12 -12
-10 -10 -9 -9 -10 -10 -10 -10 -11 -11 -11 -10 -10 -10 -9 -7 -10 -11 -11 -12 -13 -12 -12 -13 -13 -12 -12 -12 -12 -11 -11 -10 -9 -10 -9 -11 -9 -9 -11 -12 -12 -12 -12 -13 -12
-9 -10 -10 -10 -10 -9 -9 -10 -10 -11 -11 -11 -10 -10 -7 -9 -10 -10 -12 -12 -12 -13 -13 -13 -13 -12 -12 -12 -12 -11 -10 -7 -9 -10 -10 -12 -8 -11 -11 -12 -11 -12 -12 -12 -12
-9 -9 -9 -10 -10 -10 -10 -10 -10 -10 -10 -11 -10 -9 -8 -9 -10 -12 -12 -12 -13 -13 -13 -13 -13 -12 -12 -12 -11 -10 -8 -9 -9 -11 -11 -12 -9 -11 -11 -11 -11 -12 -12 -12 -11
-10 -10 -10 -10 -10 -10 -10 -10 -10 -10 -10 -10 -10 -9 -8 -10 -11 -11 -11 -12 -13 -13 -12 -13 -12 -12 -12 -11 -9 -9 -10 -10 -10 -11 -11 -11 -11 -11 -11 -11 -11 -11 -12 -11 -11
-10 -11 -11 -10 -10 -10 -11 -11 -11 -11 -10 -9 -9 -9 -9 -10 -10 -11 -11 -11 -12 -12 -11 -12 -11 -10 -10 -10 -11 -11 -10 -9 -10 -10 -10 -10 -9 -11 -12 -11 -11 -12 -11 -11 -12
-12 -12 -12 -13 -12 -12 -11 -11 -11 -11 -10 -10 -9 -9 -10 -10 -10 -10 -11 -11 -11 -10 -11 -12 -8 -11 -11 -11 -11 -10 -10 -9 -10 -11 -10 -10 -9 -11 -12 -12 -12 -12 -11 -12 -13
-16 -16 -15 -15 -15 -14 -13 -13 -12 -11 -10 -10 -10 -9 -10 -11 -10 -10 -10 -11 -11 -11 -11 -10 -9 -10 -11 -11 -10 -9 -9 -10 -10 -11 -11 -10 -10 -10 -12 -12 -11 -11 -11 -12 -12
-21 -21 -21 -20 -18 -17 -16 -15 -13 -12 -11 -10 -11 -10 -10 -11 -10 -11 -10 -10 -11 -10 -11 -10 -10 -9 -10 -10 -10 -9 -10 -10 -11 -11 -11 -12 -10 -11 -11 -11 -12 -12 -11 -11 -12
-22 -22 -23 -22 -23 -22 -19 -19 -16 -14 -12 -12 -12 -11 -12 -11 -10 -11 -12 -10 -10 -10 -11 -8 -9 -9 -9 -9 -10 -9 -11 -11 -11 -11 -11 -12 -11 -10 -11 -10 -10 -10 -11 -11 -12
-23 -22 -22 -22 -23 -22 -22 -22 -20 -17 -13 -15 -13 -11 -11 -12 -11 -12 -13 -11 -11 -12 -11 -10 -10 -10 -9 -10 -10 -10 -11 -11 -12 -12 -12 -11 -12 -11 -11 -10 -10 -10 -11 -12 -12
-24 -24 -23 -23 -23 -23 -22 -22 -22 -19 -15 -16 -15 -13 -13 -12 -12 -13 -13 -12 -10 -10 -10 -11 -10 -10 -10 -10 -10 -10 -11 -12 -12 -11 -8 -12 -12 -11 -12 -11 -11 -10 -11 -12 -12
-24 -24 -24 -24 -24 -24 -24 -24 -23 -19 -18 -19 -18 -16 -16 -14 -13 -14 -13 -12 -11 -11 -10 -10 -10 -9 -9 -9 -10 -10 -11 -10 -10 -10 -9 -12 -12 -11 -12 -11 -10 -11 -11 -12 -12
-24 -24 -24 -23 -24 -24 -24 -23 -22 -22 -22 -21 -18 -17 -16 -15 -14 -14 -12 -12 -11 -10 -10 -10 -9 -10 -10 -10 -10 -11 -9 -10 -11 -12 -12 -11 -12 -11 -11 -11 -11 -11 -12 -12 -12
-24 -24 -24 -24 -24 -24 -24 -24 -23 -23 -24 -22 -20 -19 -19 -16 -15 -14 -12 -12 -12 -12 -11 -11 -10 -10 -11 -11 -11 -10 -10 -11 -11 -12 -11 -11 -11 -10 -10 -11 -11 -11 -12 -12 -11
-24 -25 -25 -26 -26 -26 -25 -24 -24 -24 -25 -24 -21 -20 -18 -17 -16 -15 -11 -12 -12 -13 -13 -12 -11 -11 -12 -10 -9 -10 -11 -12 -12 -11 -11 -11 -10 -11 -12 -12 -12 -12 -12 -11 -12
-25 -25 -26 -26 -26 -25 -26 -25 -24 -24 -25 -24 -22 -21 -19 -18 -17 -15 -13 -12 -12 -12 -12 -11 -12 -12 -10 -10 -11 -11 -11 -10 -10 -10 -11 -11 -11 -11 -11 -11 -12 -12 -11 -12 -11
-26 -26 -26 -26 -26 -26 -26 -26 -25 -25 -25 -25 -23 -23 -22 -18 -17 -15 -14 -14 -12 -12 -12 -13 -12 -12 -11 -11 -11 -11 -11 -11 -10 -11 -10 -12 -11 -11 -11 -11 -11 -11 -12 -12 -11
-26 -26 -26 -26 -26 -26 -26 -26 -26 -25 -25 -25 -24 -23 -24 -19 -17 -16 -16 -15 -13 -12 -12 -12 -11 -11 -10 -10 -10 -10 -11 -11 -11 -10 -10 -11 -11 -11 -10 -11 -11 -12 -12 -12 -11
-26 -26 -26 -26 -26 -26 -26 -26 -26 -25 -25 -25 -24 -23 -23 -21 -18 -16 -17 -16 -14 -13 -13 -11 -10 -10 -11 -11 -11 -11 -10 -10 -11 -10 -10 -10 -10 -11 -11 -11 -12 -11 -11 -12 -12
-27 -27 -27 -26 -26 -26 -26 -26 -26 -26 -25 -25 -25 -24 -23 -22 -20 -17 -17 -16 -16 -15 -13 -11 -10 -11 -11 -12 -12 -11 -11 -11 -11 -11 -10 -10 -10 -11 -11 -12 -11 -11 -10 -11 -11
-27 -27 -27 -27 -27 -27 -26 -26 -26 -26 -26 -25 -25 -25 -24 -22 -21 -19 -16 -16 -16 -16 -14 -12 -11 -11 -10 -12 -12 -12 -11 -11 -12 -11 -11 -10 -9 -11 -11 -11 -11 -11 -9 -10 -11
Height
5822 5822 5822 5821 5821 5821 5823 5823 5826 5829 5832 5834 5836 5838 5840 5846 5850 5852 5860 5862 5861 5861 5866 5866 5867 5869 5867 5870 5867 5862 5861 5869 5870 5867 5866 5867 5862 5862 5858 5854 5851 5849 5847 5848 5847
5813 5813 5813 5813 5812 5812 5812 5813 5816 5818 5820 5824 5825 5828 5829 5834 5837 5841 5854 5849 5853 5853 5858 5860 5860 5857 5860 5863 5860 5855 5853 5862 5863 5862 5859 5859 5856 5855 5853 5852 5850 5846 5843 5843 5841
5804 5804 5803 5803 5803 5803 5804 5804 5805 5807 5808 5811 5813 5816 5818 5822 5826 5837 5835 5844 5844 5846 5850 5851 5850 5850 5852 5853 5855 5850 5846 5853 5854 5855 5854 5850 5851 5848 5846 5846 5844 5840 5837 5837 5835
5796 5795 5794 5793 5793 5793 5793 5794 5794 5794 5796 5797 5800 5804 5806 5809 5811 5823 5829 5832 5836 5835 5840 5842 5842 5842 5844 5844 5850 5837 5841 5842 5845 5845 5842 5842 5842 5843 5840 5839 5838 5835 5834 5833 5829
5786 5785 5785 5784 5784 5783 5783 5783 5783 5783 5783 5785 5787 5790 5792 5794 5801 5813 5820 5823 5825 5826 5831 5833 5832 5835 5833 5837 5837 5830 5836 5835 5835 5834 5833 5833 5834 5833 5833 5835 5833 5831 5828 5825 5822
5774 5772 5771 5771 5771 5771 5771 5771 5770 5772 5773 5774 5776 5778 5780 5779 5799 5802 5805 5809 5813 5815 5819 5821 5827 5827 5817 5826 5825 5830 5826 5827 5827 5825 5824 5826 5827 5824 5829 5830 5829 5825 5822 5821 5818
5762 5761 5759 5759 5759 5759 5760 5760 5761 5762 5763 5763 5765 5766 5769 5779 5785 5789 5787 5794 5802 5804 5809 5814 5815 5812 5812 5813 5816 5818 5816 5816 5817 5821 5824 5821 5818 5821 5823 5824 5824 5819 5818 5816 5814
5748 5746 5745 5744 5744 5744 5745 5748 5748 5750 5751 5754 5756 5758 5759 5768 5767 5770 5778 5785 5787 5792 5798 5803 5803 5801 5798 5805 5805 5808 5808 5809 5815 5816 5818 5814 5813 5817 5817 5817 5815 5815 5813 5812 5809
5733 5729 5726 5725 5726 5727 5729 5729 5732 5735 5738 5742 5746 5746 5749 5757 5761 5763 5763 5768 5776 5778 5785 5790 5785 5786 5792 5793 5797 5801 5800 5805 5810 5810 5809 5807 5808 5812 5810 5809 5809 5810 5809 5809 5806
5710 5708 5705 5704 5703 5704 5705 5708 5712 5717 5722 5727 5731 5738 5739 5749 5751 5753 5752 5755 5760 5767 5770 5773 5773 5774 5778 5782 5787 5794 5798 5800 5803 5804 5801 5801 5801 5803 5805 5803 5804 5803 5806 5805 5801
5683 5680 5678 5678 5679 5681 5684 5686 5692 5697 5703 5713 5719 5725 5725 5729 5736 5743 5744 5746 5750 5753 5755 5763 5760 5757 5775 5781 5784 5787 5790 5793 5799 5797 5794 5796 5795 5797 5798 5800 5798 5799 5801 5799 5797
5651 5648 5648 5649 5651 5654 5658 5661 5668 5677 5684 5695 5703 5709 5716 5717 5723 5730 5736 5739 5741 5747 5751 5752 5746 5764 5771 5774 5776 5780 5783 5787 5792 5792 5790 5792 5791 5790 5792 5793 5793 5795 5795 5794 5793
5620 5619 5620 5620 5623 5627 5631 5637 5645 5656 5665 5679 5687 5693 5704 5705 5708 5718 5724 5728 5732 5737 5741 5746 5753 5759 5764 5767 5769 5775 5777 5785 5788 5789 5784 5786 5785 5786 5787 5788 5789 5790 5791 5789 5788
5596 5593 5593 5595 5599 5599 5604 5613 5622 5638 5644 5663 5670 5677 5684 5693 5695 5710 5711 5718 5722 5727 5734 5736 5745 5749 5754 5758 5765 5766 5777 5779 5779 5782 5782 5782 5779 5780 5783 5786 5787 5789 5788 5787 5783
5585 5582 5580 5581 5582 5582 5585 5591 5600 5613 5627 5648 5648 5655 5663 5674 5688 5699 5705 5706 5713 5718 5723 5727 5733 5739 5745 5755 5760 5767 5769 5772 5774 5774 5776 5778 5775 5781 5781 5781 5781 5784 5784 5781 5777
5575 5572 5570 5568 5568 5568 5573 5574 5582 5591 5611 5622 5620 5634 5643 5657 5670 5678 5687 5693 5702 5706 5712 5719 5727 5732 5739 5744 5749 5762 5760 5764 5766 5766 5761 5772 5774 5774 5773 5776 5777 5781 5775 5775 5774
5566 5562 5558 5557 5554 5555 5559 5562 5566 5567 5597 5604 5601 5617 5628 5634 5645 5656 5670 5678 5689 5693 5698 5707 5713 5721 5727 5732 5739 5746 5749 5752 5754 5753 5759 5766 5767 5769 5770 5772 5775 5773 5772 5773 5773
5559 5554 5550 5547 5545 5545 5548 5550 5550 5567 5577 5581 5589 5600 5602 5617 5626 5634 5653 5667 5680 5690 5696 5704 5710 5714 5721 5724 5732 5735 5741 5744 5745 5752 5758 5758 5759 5766 5767 5769 5771 5770 5771 5772 5771
5550 5544 5539 5535 5534 5536 5538 5538 5542 5547 5549 5565 5576 5579 5590 5601 5610 5622 5640 5657 5674 5683 5690 5695 5701 5710 5715 5722 5727 5731 5732 5746 5747 5750 5752 5756 5758 5760 5761 5763 5767 5767 5767 5769 5767
5541 5533 5529 5524 5525 5526 5528 5530 5533 5538 5542 5552 5550 5558 5571 5583 5596 5613 5632 5649 5658 5669 5680 5690 5694 5704 5709 5713 5720 5725 5734 5735 5735 5740 5746 5750 5753 5755 5756 5759 5761 5763 5766 5765 5760
5529 5524 5522 5521 5521 5522 5521 5521 5523 5529 5535 5539 5542 5553 5562 5573 5588 5598 5617 5629 5641 5649 5661 5675 5683 5691 5696 5703 5711 5714 5717 5725 5734 5738 5740 5746 5750 5754 5754 5755 5759 5762 5762 5759 5757
5524 5520 5519 5520 5521 5520 5520 5519 5520 5523 5527 5531 5533 5540 5548 5563 5578 5588 5604 5608 5617 5630 5643 5660 5670 5681 5694 5699 5706 5712 5718 5723 5727 5731 5735 5740 5745 5747 5751 5754 5757 5760 5759 5757 5755
5523 5520 5520 5518 5519 5518 5518 5517 5518 5521 5522 5527 5530 5531 5538 5553 5567 5580 5586 5594 5609 5624 5634 5646 5652 5669 5680 5687 5692 5699 5708 5715 5721 5726 5730 5736 5743 5743 5746 5750 5754 5756 5756 5755 5754
5522 5519 5518 5517 5516 5516 5516 5515 5515 5516 5521 5523 5525 5528 5532 5539 5550 5563 5576 5584 5599 5611 5624 5633 5644 5654 5669 5682 5692 5695 5701 5709 5714 5719 5725 5729 5737 5737 5741 5744 5749 5753 5755 5754 5752
5519 5518 5516 5516 5515 5513 5513 5512 5513 5513 5517 5519 5523 5523 5529 5530 5538 5553 5564 5581 5589 5601 5613 5627 5641 5651 5665 5677 5684 5692 5698 5702 5706 5715 5718 5728 5731 5733 5736 5741 5746 5749 5751 5753 5751
5521 5518 5517 5515 5514 5512 5511 5511 5510 5509 5511 5514 5517 5517 5522 5527 5529 5540 5556 5571 5581 5594 5606 5622 5638 5646 5656 5667 5676 5682 5690 5697 5703 5710 5715 5723 5727 5731 5734 5738 5741 5745 5747 5749 5749
5522 5518 5515 5514 5512 5511 5510 5508 5507 5507 5508 5509 5512 5513 5515 5519 5525 5532 5546 5559 5572 5586 5598 5613 5625 5636 5645 5657 5669 5668 5677 5687 5697 5704 5710 5715 5724 5728 5729 5733 5737 5740 5743 5746 5747
Wind_Speed
34 35 37 38 39 41 44 51 55 55 58 59 59 57 53 50 51 53 47 35 43 45 41 40 40 34 33 33 34 40 44 31 27 30 30 29 29 28 27 26 32 35 34 35 30
34 36 40 42 41 43 40 43 49 56 58 58 57 59 56 55 54 50 40 44 45 45 45 40 36 39 37 35 39 42 41 33 31 30 33 34 35 26 23 23 28 36 39 36 29
36 35 36 38 45 46 46 45 47 49 54 58 58 61 61 61 59 54 57 47 49 46 44 43 38 46 44 41 37 39 45 39 39 39 37 42 26 17 18 25 26 31 34 30 28
36 36 40 39 39 42 46 48 49 51 54 54 57 60 60 58 60 57 59 52 53 52 47 45 45 47 46 45 37 48 46 45 42 45 48 34 28 18 17 24 26 31 30 25 23
39 41 41 42 39 37 40 47 48 49 51 53 56 58 61 59 54 56 58 55 55 54 49 49 51 44 51 41 43 52 47 48 49 50 37 31 26 17 17 22 25 27 27 26 24
42 41 42 43 47 46 42 41 47 50 51 52 53 55 58 59 54 59 60 62 61 57 53 51 48 45 56 52 53 49 53 52 52 36 27 26 16 21 13 19 21 24 26 28 26
43 46 47 49 49 49 53 52 50 54 55 54 51 48 52 46 50 54 62 62 61 57 58 57 57 57 57 56 59 59 54 48 29 26 16 22 21 14 12 19 14 18 22 26 26
49 49 50 51 52 53 54 52 55 53 53 57 54 49 41 37 37 48 56 59 59 59 60 57 56 62 66 63 62 54 45 21 17 20 6 23 12 13 13 14 14 22 22 28 32
57 58 59 58 57 56 55 57 57 55 55 56 51 46 36 37 31 33 50 57 58 61 62 60 66 68 67 62 56 41 27 21 11 15 16 24 17 16 13 16 16 15 21 30 31
67 67 67 67 66 64 62 60 58 59 59 56 52 51 44 43 39 36 37 45 58 61 64 64 66 66 63 55 33 29 25 21 16 13 22 23 15 12 16 13 13 14 17 28 28
77 75 75 75 74 72 69 68 65 63 60 57 55 49 49 49 45 43 37 39 37 40 47 49 57 58 40 28 27 30 29 25 17 23 26 22 18 10 8 17 15 16 28 22 29
82 83 81 79 78 78 77 75 72 68 65 59 56 54 50 47 47 45 45 45 41 33 31 36 37 26 28 30 31 31 29 28 20 25 26 21 23 15 10 19 21 26 22 25 29
73 74 77 78 76 77 78 79 78 73 70 64 58 56 53 52 49 45 46 46 46 44 39 33 28 30 30 31 33 32 31 22 21 26 30 24 25 22 15 21 26 27 23 25 26
51 50 51 54 63 67 72 76 78 77 75 69 65 60 57 54 55 44 44 48 49 48 46 43 41 36 37 37 36 40 24 22 25 26 25 24 25 23 21 21 25 21 17 21 22
35 36 35 34 34 41 55 58 68 73 74 66 67 68 63 59 54 46 43 41 46 48 50 43 42 44 42 38 36 29 28 25 22 26 25 31 29 10 15 17 17 11 10 19 27
34 36 37 38 38 40 38 42 46 61 68 57 67 67 67 61 56 53 48 47 39 38 43 47 46 45 41 42 40 29 33 28 30 27 34 21 24 5 8 10 7 12 15 19 25
28 30 30 29 32 34 36 39 41 54 55 48 55 65 60 64 55 54 55 52 46 46 45 42 43 43 43 42 42 41 39 36 36 39 24 16 16 6 7 11 12 11 12 17 22
29 31 31 30 29 27 24 26 36 37 42 35 40 40 52 52 49 41 51 54 48 43 40 34 35 36 33 39 42 45 41 40 37 29 17 15 18 10 5 13 12 12 11 16 20
33 35 35 32 28 26 29 33 29 28 40 43 46 49 49 61 55 46 48 56 50 44 40 38 36 30 31 31 39 39 37 27 30 25 23 16 18 15 12 9 13 13 17 17 24
35 34 31 20 20 23 25 30 31 25 22 41 57 45 45 60 58 57 54 46 52 51 47 38 35 29 23 32 31 32 31 35 33 25 26 21 23 15 13 13 12 14 16 21 24
31 24 16 7 8 6 10 15 24 27 24 30 55 50 47 61 59 60 67 59 49 46 48 47 42 34 36 34 34 36 42 41 30 25 21 17 17 13 15 20 16 12 16 23 27
23 13 5 3 6 9 4 8 15 18 24 28 49 58 51 60 65 63 67 70 67 57 51 51 48 39 32 34 30 30 33 33 30 32 25 20 17 15 18 18 11 11 15 20 24
17 10 4 4 10 8 9 6 5 11 19 22 43 48 54 54 64 65 70 71 70 66 59 49 54 47 42 41 39 40 37 36 32 32 26 23 17 19 19 15 12 10 12 16 22
14 8 6 7 7 8 12 16 16 15 10 17 28 45 47 57 66 73 69 71 69 70 66 60 58 55 51 46 39 40 41 38 39 36 29 25 21 23 18 14 12 8 4 11 19
15 5 6 7 11 15 15 18 17 18 17 15 23 35 52 58 57 76 71 67 67 67 69 67 62 59 51 45 41 39 37 38 39 30 32 24 23 22 19 18 14 16 10 8 12
20 11 9 8 10 8 7 6 7 11 15 19 18 26 34 54 58 73 64 70 64 65 67 68 62 56 54 50 46 46 43 38 36 33 27 24 25 22 23 21 24 16 7 5 11
21 19 11 12 9 5 5 10 10 8 11 20 19 21 30 49 66 59 62 68 69 65 66 70 65 60 58 55 50 55 51 46 37 33 32 29 22 26 27 25 22 16 8 3 5
Wind_Direction
253 257 260 262 261 260 253 246 244 246 248 253 253 258 259 253 250 246 257 252 253 253 249 243 262 252 254 255 263 271 278 281 289 282 276 279 290 271 275 289 296 297 296 303 311
258 262 258 260 261 263 260 253 250 245 248 249 250 251 250 249 254 253 242 254 246 253 256 251 262 259 251 253 266 267 270 280 282 281 271 291 290 272 262 275 273 276 289 295 312
258 258 258 261 258 257 256 256 255 253 253 250 247 250 252 250 250 246 246 253 247 253 255 252 248 250 256 256 253 262 270 278 282 282 285 287 278 246 267 267 271 283 288 305 314
256 259 256 264 260 255 254 254 255 256 253 253 249 249 249 248 246 246 251 250 242 252 252 253 255 258 255 253 255 261 268 277 287 289 292 281 273 253 266 270 277 285 292 315 315
266 264 262 258 252 256 255 253 253 255 256 253 252 250 249 246 245 250 249 246 246 251 246 250 252 250 256 254 255 258 271 275 284 290 278 265 262 263 260 278 282 283 312 327 322
271 269 267 260 254 255 255 255 254 251 251 251 251 251 249 251 250 246 248 247 246 245 246 246 251 251 253 255 256 262 270 281 281 279 248 261 256 254 274 280 270 300 323 323 310
272 268 266 263 260 257 253 252 254 254 246 246 246 247 250 255 252 241 242 244 245 244 240 246 248 247 255 260 262 270 278 280 259 260 264 281 242 264 268 261 269 302 311 317 309
276 271 267 265 261 259 258 252 251 249 249 242 244 243 244 250 250 239 239 241 242 241 242 245 248 248 249 258 265 270 274 242 252 263 255 264 238 231 235 265 288 296 308 319 307
272 271 269 266 262 259 256 254 252 248 246 244 245 246 240 244 249 249 236 234 238 238 240 243 245 248 253 259 262 267 236 249 254 256 222 244 254 240 262 271 289 296 304 301 310
269 266 263 262 261 259 255 252 250 251 248 245 245 246 247 243 244 242 244 243 240 245 244 243 247 251 254 255 251 234 255 255 231 201 205 217 253 306 271 290 293 313 293 304 316
268 265 262 258 256 255 253 250 247 245 248 246 247 243 246 243 238 237 237 243 242 240 241 240 243 245 254 235 249 253 249 238 219 207 216 225 243 259 296 271 289 306 296 305 303
265 262 261 257 254 252 250 249 246 245 245 246 246 244 242 246 242 236 232 238 240 247 233 219 233 225 224 235 243 241 235 233 209 218 244 246 254 247 255 278 292 295 294 301 293
274 268 264 263 260 256 250 248 247 244 245 242 242 243 242 242 242 238 232 232 234 235 236 230 234 226 231 237 239 239 236 234 234 213 242 259 260 247 256 269 284 298 290 280 288
280 277 272 265 259 258 254 250 246 243 243 242 240 241 241 240 241 238 238 232 229 231 234 234 226 218 224 232 233 233 239 233 231 223 242 250 254 247 257 277 276 267 285 317 331
287 284 281 276 270 261 257 252 249 242 241 240 238 236 237 237 240 239 239 236 234 235 233 235 230 225 227 229 237 237 235 231 224 236 246 215 244 227 251 252 258 283 319 358 345
292 287 283 277 269 262 257 256 246 243 236 238 238 234 232 230 232 231 229 231 225 230 233 233 237 238 235 236 236 225 226 222 224 225 225 204 238 168 235 256 243 288 11 351 344
304 299 292 284 275 270 261 255 250 240 229 225 235 231 232 226 221 227 224 225 220 221 218 222 225 225 222 224 218 211 215 212 222 225 229 214 246 159 203 245 259 325 353 324 314
312 309 297 289 276 270 256 246 244 246 225 221 208 217 212 214 205 200 212 222 218 222 228 224 218 215 216 216 212 216 216 222 218 223 226 232 236 171 224 253 272 294 343 314 320
307 303 301 290 270 262 252 248 251 235 228 203 200 206 212 210 200 192 200 211 216 217 219 221 215 215 218 219 211 213 225 222 218 220 232 216 219 209 219 237 251 312 341 316 320
307 301 307 290 268 267 258 251 250 246 247 206 199 191 185 196 192 194 197 196 205 212 221 223 224 211 212 210 212 219 219 203 210 210 223 213 210 227 254 269 291 315 328 313 332
316 301 306 299 312 301 287 244 238 237 237 220 210 195 178 194 183 183 209 200 191 200 213 216 218 212 203 206 207 207 209 206 209 220 220 228 217 217 225 259 272 304 308 319 335
335 316 293 301 298 290 315 345 231 221 221 223 211 206 195 185 188 183 201 200 198 193 197 203 214 212 210 209 209 218 221 223 218 218 216 221 201 215 230 238 253 278 311 324 332
337 318 238 279 288 299 295 299 279 236 228 235 217 220 207 182 183 180 195 193 198 199 197 196 204 207 201 206 197 207 208 219 221 216 216 222 201 217 221 225 251 293 324 313 326
327 308 250 253 269 259 257 277 273 269 265 237 224 227 225 195 181 182 189 188 191 196 202 197 198 203 202 207 211 210 206 210 221 219 216 212 194 232 237 247 262 275 279 313 320
352 306 272 282 314 302 295 299 294 274 266 263 231 230 227 216 190 185 191 187 189 192 197 204 204 202 195 204 208 212 215 211 216 216 219 201 209 230 242 249 253 256 274 285 305
0 345 319 292 315 311 295 341 306 290 255 245 233 232 231 230 213 190 187 189 189 191 196 201 204 204 197 198 205 211 212 213 213 220 225 210 213 220 236 240 246 264 287 324 285
354 358 329 320 286 307 286 301 311 287 266 225 230 228 231 229 221 200 187 189 189 189 195 197 199 201 200 196 199 212 211 212 215 217 225 221 204 216 227 239 247 257 279 279 282